Temperature
5 5 5 5 5 5 5 5 5 5 5 6 6 5 5 5 5 5 5 5 5 5 5 5 4 4 4 4 4 4 4 3 3 3 4 4 4 4 4 4 4 4 3
4 4 4 4 4 4 4 4 5 5 5 5 5 5 5 5 5 5 5 4 4 4 4 4 4 4 3 3 3 3 3 3 3 3 3 3 3 3 3 3 3 3 3
3 3 4 4 4 4 4 4 4 4 4 4 4 4 4 4 4 4 4 4 4 4 4 4 3 3 3 3 3 3 3 3 3 2 2 2 3 3 3 3 3 3 3
3 3 3 3 3 3 3 3 3 3 4 4 4 4 4 3 3 3 3 3 3 3 3 3 3 3 3 2 2 2 2 2 2 2 2 2 2 2 2 2 2 2 2
2 2 2 2 3 3 3 3 3 3 3 3 3 3 3 3 3 3 3 3 3 2 2 2 2 2 2 2 2 2 2 2 2 1 1 1 2 2 2 2 1 1 1
2 2 2 2 2 2 2 2 2 2 2 2 2 2 2 2 2 2 2 2 2 2 2 2 2 2 2 2 2 2 2 2 1 1 1 1 1 1 1 1 1 1 0
1 1 1 1 1 1 1 1 1 1 1 1 2 2 2 2 2 2 2 2 1 1 1 1 1 1 1 1 1 1 1 1 1 1 1 1 1 1 1 0 0 0 -0
1 1 1 1 1 1 1 1 1 1 1 1 1 1 1 1 1 1 1 1 1 1 1 1 1 1 1 1 1 1 1 1 1 0 0 1 0 0 0 -0 -0 -0 -0
0 0 0 0 0 0 0 0 0 0 0 1 1 0 1 1 1 1 1 0 1 0 0 0 0 0 0 0 0 0 0 0 0 0 0 0 0 0 -0 -0 -0 -1 -1
-1 -1 -1 -1 -0 -0 -0 -0 -0 -0 -0 -0 -0 -0 -0 0 0 0 -0 -0 -0 -0 -0 -0 -0 -0 -0 -0 -0 -0 -0 -0 -0 -0 -0 -0 -0 -0 -0 -0 -1 -1 -1
-1 -1 -1 -1 -1 -1 -1 -1 -1 -1 -1 -1 -1 -1 -1 -1 -1 -1 -1 -1 -1 -1 -1 -1 -1 -1 -1 -1 -1 -1 -1 -0 -0 -0 -0 -1 -1 -1 -1 -1 -1 -1 -1
-1 -1 -1 -1 -1 -1 -1 -1 -1 -1 -1 -1 -1 -1 -1 -1 -1 -1 -1 -1 -1 -1 -1 -1 -1 -1 -1 -1 -1 -1 -1 -1 -1 -1 -1 -1 -1 -1 -1 -1 -1 -1 -1
-2 -2 -2 -2 -2 -2 -2 -2 -2 -2 -2 -2 -2 -2 -2 -2 -2 -2 -2 -2 -1 -1 -1 -1 -1 -1 -1 -1 -1 -1 -1 -1 -1 -1 -1 -1 -1 -1 -1 -1 -1 -1 -1
-2 -2 -2 -3 -2 -2 -2 -2 -2 -2 -2 -2 -2 -2 -2 -2 -2 -2 -2 -2 -2 -2 -2 -2 -2 -2 -2 -2 -2 -2 -2 -2 -2 -2 -2 -2 -2 -2 -1 -1 -1 -2 -1
-3 -3 -3 -3 -3 -3 -3 -3 -3 -3 -3 -3 -3 -3 -3 -3 -3 -3 -3 -2 -2 -2 -2 -2 -2 -2 -2 -2 -2 -2 -2 -2 -2 -2 -2 -2 -2 -2 -2 -2 -2 -2 -2
-3 -3 -3 -3 -3 -3 -3 -3 -3 -3 -3 -3 -3 -3 -3 -3 -3 -3 -3 -3 -3 -3 -3 -3 -3 -3 -3 -3 -2 -2 -2 -3 -2 -2 -2 -2 -2 -2 -2 -2 -2 -2 -3
-4 -4 -4 -4 -4 -4 -4 -3 -4 -4 -4 -4 -3 -3 -3 -3 -3 -3 -3 -3 -3 -3 -3 -3 -3 -3 -3 -3 -3 -3 -3 -3 -3 -3 -3 -3 -3 -3 -3 -3 -3 -3 -3
-4 -4 -4 -4 -4 -4 -4 -4 -4 -4 -4 -4 -4 -4 -4 -4 -4 -3 -4 -4 -4 -4 -4 -4 -4 -4 -4 -4 -3 -3 -3 -3 -3 -3 -3 -3 -3 -3 -3 -3 -3 -3 -3
-4 -4 -5 -5 -4 -4 -4 -4 -4 -4 -4 -4 -4 -4 -4 -4 -4 -4 -4 -4 -4 -4 -4 -4 -4 -4 -4 -4 -4 -4 -4 -4 -4 -3 -3 -3 -3 -3 -3 -3 -3 -3 -3
-5 -5 -5 -5 -5 -5 -5 -5 -5 -5 -5 -5 -5 -4 -4 -4 -4 -5 -5 -5 -5 -5 -5 -4 -4 -4 -4 -4 -4 -4 -4 -4 -4 -4 -3 -3 -3 -3 -3 -3 -3 -4 -4
-5 -5 -5 -5 -5 -5 -5 -5 -5 -5 -5 -5 -5 -5 -5 -5 -5 -5 -5 -5 -5 -5 -5 -5 -5 -5 -5 -5 -4 -4 -4 -4 -4 -4 -4 -4 -3 -3 -4 -4 -3 -3 -3
-6 -6 -6 -6 -5 -5 -5 -5 -5 -5 -5 -5 -5 -5 -5 -5 -5 -5 -5 -5 -5 -5 -5 -5 -5 -5 -5 -5 -5 -5 -4 -4 -4 -4 -4 -4 -4 -4 -4 -4 -4 -3 -4
-6 -6 -6 -6 -6 -6 -6 -6 -6 -6 -6 -6 -6 -6 -6 -6 -6 -6 -6 -6 -6 -5 -5 -5 -5 -5 -5 -5 -5 -5 -5 -5 -4 -4 -4 -4 -4 -4 -4 -4 -4 -4 -4
-6 -6 -6 -6 -6 -6 -6 -6 -6 -6 -6 -6 -6 -6 -6 -6 -6 -6 -6 -6 -6 -6 -6 -6 -6 -5 -5 -5 -5 -5 -5 -5 -5 -5 -4 -4 -4 -4 -4 -4 -4 -4 -4
-6 -6 -7 -7 -7 -7 -7 -6 -6 -6 -6 -6 -6 -6 -6 -6 -6 -6 -6 -6 -6 -6 -6 -6 -6 -6 -6 -5 -5 -5 -5 -5 -5 -5 -4 -4 -4 -4 -4 -4 -4 -4 -4
-7 -7 -7 -7 -7 -7 -7 -7 -7 -7 -6 -6 -6 -6 -6 -6 -6 -6 -6 -6 -6 -6 -6 -6 -6 -6 -6 -5 -5 -5 -5 -5 -5 -5 -5 -5 -4 -4 -4 -4 -4 -4 -4
Wind_Speed
2 2 2 2 2 3 3 3 4 4 4 4 4 4 4 4 4 4 4 4 4 4 4 4 4 4 3 3 3 3 4 5 6 5 4 5 6 6 6 6 7 6 7
2 2 2 2 2 2 2 3 3 4 4 4 4 5 5 5 5 5 5 5 5 5 5 4 4 3 4 3 3 4 4 5 5 6 5 5 6 6 6 6 5 6 6
1 1 2 1 1 2 2 3 3 4 4 4 5 5 5 5 5 5 4 4 5 5 4 4 4 4 4 3 3 4 4 4 4 4 5 4 5 5 6 5 5 5 6
1 1 1 1 1 1 2 2 2 3 4 4 4 5 4 4 4 4 4 4 4 4 4 4 4 5 5 4 4 4 4 4 3 4 4 4 4 4 5 5 5 5 5
1 1 1 1 1 1 1 1 1 2 2 2 3 4 4 4 4 4 3 4 4 4 3 3 3 4 4 4 3 3 3 3 3 3 4 4 4 4 4 4 5 5 5
1 1 1 1 1 1 1 1 1 1 1 1 2 3 3 3 3 4 4 3 3 3 3 2 2 2 2 3 3 3 3 3 3 3 3 4 4 4 4 4 5 5 4
1 2 2 1 1 1 1 1 1 1 1 1 2 2 2 2 3 3 4 3 3 3 3 3 2 2 2 2 2 2 2 3 3 4 4 4 4 5 4 4 4 5 5
1 2 2 1 1 1 1 1 1 1 1 1 1 1 1 2 2 2 2 2 2 3 3 3 3 2 2 2 1 2 2 2 3 3 3 3 4 4 4 4 5 5 5
1 2 2 2 1 1 1 1 1 1 1 0 1 1 1 2 2 2 2 2 2 2 2 2 3 2 3 2 2 2 2 2 2 3 3 3 4 4 4 2 3 3 4
2 2 2 1 1 1 1 1 1 1 1 0 0 1 1 1 2 2 2 1 2 1 1 1 2 3 3 3 2 2 2 2 2 2 3 3 3 2 3 2 2 3 3
2 2 2 1 1 1 1 0 0 0 0 0 0 1 1 1 1 1 2 1 2 2 1 1 1 2 3 3 3 2 3 2 2 1 2 2 2 2 3 3 3 3 3
2 1 2 2 1 1 0 0 0 0 1 0 0 1 1 1 1 1 1 2 1 1 2 1 1 2 2 2 2 1 1 1 1 1 1 1 2 2 3 4 4 4 4
1 1 2 2 2 1 1 0 0 1 1 1 1 1 0 1 1 1 1 1 1 1 1 1 1 2 1 0 0 1 0 0 0 1 1 2 2 2 3 3 4 4 4
0 1 1 1 1 1 1 1 1 1 1 1 1 1 1 1 1 1 1 1 0 1 1 1 1 1 1 1 1 1 1 1 1 1 1 2 2 2 2 3 3 4 3
1 1 1 1 1 1 1 1 1 2 2 2 2 2 2 2 2 2 2 1 1 1 1 1 0 1 0 1 1 1 1 1 1 1 1 2 2 2 3 3 3 3 3
1 1 1 1 1 1 1 1 1 1 2 2 2 2 1 2 1 1 1 1 1 1 1 1 1 1 0 0 1 1 1 1 1 1 1 1 2 2 2 3 3 3 3
1 2 1 1 1 1 1 1 1 1 1 1 1 1 1 0 0 0 1 1 2 1 1 0 0 1 1 1 1 1 1 2 2 1 2 2 2 2 2 2 3 3 3
2 2 2 2 2 1 1 1 1 1 1 1 1 1 1 1 1 1 1 1 1 1 0 0 0 1 1 1 1 1 1 2 2 2 2 2 2 2 2 2 2 3 3
2 2 2 2 2 2 1 1 1 1 1 0 1 1 1 1 2 2 1 1 1 0 0 0 1 1 1 1 1 1 1 2 2 2 2 2 2 2 2 2 2 3 3
2 3 3 2 2 1 1 1 1 1 1 1 1 0 1 1 1 1 1 1 0 0 0 0 1 1 1 1 1 2 2 2 2 2 2 2 2 2 2 3 2 3 3
2 2 3 2 2 1 1 1 1 1 1 1 1 1 0 1 1 1 0 0 0 0 0 1 1 1 1 1 1 2 2 2 2 2 2 2 2 2 2 2 2 2 3
2 2 2 2 1 1 1 1 1 1 1 1 1 0 1 1 1 1 0 0 0 1 1 1 1 1 2 2 2 2 2 2 2 3 3 3 2 2 2 2 2 2 2
2 2 2 1 1 1 1 1 1 1 1 1 1 1 1 1 0 0 0 0 0 1 1 1 1 1 2 2 3 3 3 3 3 3 3 2 2 2 2 2 2 2 2
2 2 1 1 1 1 1 1 1 1 1 1 1 1 1 1 1 1 0 0 0 1 1 1 2 2 3 3 3 3 3 4 4 3 3 3 2 2 2 2 2 1 1
1 1 1 1 1 1 1 1 1 1 1 1 1 1 1 1 1 1 0 0 1 1 1 1 1 2 3 3 3 3 5 6 4 3 3 2 2 2 1 1 1 1 1
1 1 1 1 1 1 1 1 1 1 1 1 1 1 1 1 1 1 1 1 1 1 1 1 2 2 3 3 3 4 5 5 4 3 2 2 1 1 1 0 0 0 1
Wind_Direction
238 236 236 237 241 235 231 231 226 221 214 207 207 213 216 216 214 212 214 220 224 229 222 224 234 244 254 258 254 256 255 256 265 283 293 306 308 310 318 311 308 298 292
256 246 240 229 224 232 236 236 227 219 217 210 206 212 218 219 217 215 216 222 228 232 233 228 232 236 244 254 254 257 260 260 264 280 296 307 309 312 316 314 319 316 313
276 254 249 228 224 234 240 235 226 215 215 210 208 213 216 218 217 221 223 223 230 234 239 239 235 234 243 254 261 265 267 269 269 276 292 305 309 318 315 319 325 324 324
295 275 274 272 258 258 251 238 227 214 209 211 215 217 214 212 212 219 226 231 233 237 242 247 250 241 244 254 258 266 276 270 269 272 287 301 313 322 317 324 327 329 330
308 313 326 324 326 339 312 274 253 226 217 213 212 213 208 210 212 210 221 232 233 233 238 248 259 254 252 255 259 268 270 272 271 274 287 307 318 327 321 324 319 324 325
337 346 346 348 356 357 349 318 280 246 220 201 202 199 199 206 201 211 219 223 229 223 225 233 246 263 268 263 276 287 284 272 275 278 285 292 304 312 317 320 320 324 322
356 355 352 348 352 341 338 298 267 259 223 203 194 189 208 211 206 218 226 226 222 225 221 223 238 248 271 257 260 282 304 316 297 282 281 291 299 307 311 313 315 315 310
1 359 356 346 327 324 328 296 283 289 242 206 191 198 221 231 216 211 219 223 227 228 225 220 226 240 255 278 270 282 301 311 311 299 288 297 306 312 302 300 307 315 321
3 354 344 334 332 326 308 299 302 276 262 239 222 212 220 231 217 224 235 215 225 228 233 225 223 233 246 264 267 266 294 317 330 320 327 328 327 330 333 326 328 325 323
341 338 331 319 293 280 283 298 285 253 237 236 248 247 239 234 217 231 251 224 223 230 227 234 233 241 245 255 267 263 265 294 313 325 335 340 338 348 348 332 316 311 318
339 344 335 317 289 278 283 310 275 229 196 190 267 286 278 268 226 237 256 251 233 231 236 249 261 264 264 253 268 278 278 283 281 295 308 326 337 345 338 336 328 302 297
348 342 331 325 321 309 321 327 273 179 197 201 227 319 338 335 343 307 290 276 261 245 250 258 266 271 276 278 279 294 294 282 264 291 309 321 328 336 335 332 329 317 301
350 336 333 331 327 322 290 266 261 235 225 224 228 256 304 305 285 273 300 324 314 270 261 262 268 259 245 254 349 15 343 299 258 283 307 321 321 325 336 340 344 344 339
313 313 320 317 321 331 308 266 246 242 238 235 237 247 266 273 276 296 307 304 280 285 260 237 217 186 102 94 99 51 1 330 296 297 307 325 333 339 344 346 342 343 345
297 299 301 298 310 321 316 293 273 265 259 247 241 242 235 252 276 287 292 273 264 249 217 216 174 138 85 47 36 25 5 341 332 332 322 336 340 340 344 344 342 338 340
300 301 290 291 302 302 307 343 7 288 298 292 291 280 278 284 276 277 287 270 208 181 182 190 193 200 212 286 342 348 341 322 316 316 313 326 334 333 338 339 338 337 339
281 292 291 283 278 282 279 277 320 12 37 44 35 4 338 289 250 217 170 139 142 147 151 170 216 244 257 271 300 319 314 309 304 301 311 321 328 327 327 328 331 338 341
289 289 284 273 266 261 261 258 252 251 298 357 25 57 52 58 80 110 139 130 113 77 69 162 274 292 299 290 286 302 313 311 305 303 306 312 320 317 316 320 323 329 331
279 277 280 272 264 257 250 247 248 245 242 277 350 28 39 53 83 78 94 88 131 123 49 359 328 314 310 300 299 299 296 295 298 302 303 307 315 315 309 311 314 320 323
277 277 283 272 260 251 238 227 225 216 213 217 235 297 345 10 74 70 44 47 78 107 348 304 313 315 305 298 292 290 294 301 299 296 301 300 307 306 303 303 307 311 314
270 277 281 279 257 242 235 229 220 207 207 220 242 277 267 217 172 164 144 81 109 240 277 292 297 301 300 291 288 286 291 299 303 299 298 296 297 301 301 299 302 309 317
267 272 272 268 258 243 230 221 214 203 198 209 224 223 187 190 177 182 174 171 310 295 290 279 279 286 284 284 276 277 284 292 297 298 296 294 296 294 293 295 307 319 329
270 268 266 266 256 221 223 212 206 205 205 210 204 194 188 181 189 204 217 241 277 304 312 296 284 291 303 294 285 275 271 280 290 292 291 291 295 293 290 296 306 316 333
262 256 252 251 241 229 223 214 208 207 206 204 192 187 197 200 209 219 229 234 278 297 300 291 287 287 298 304 297 293 288 293 298 287 283 283 285 290 294 304 307 316 322
249 248 245 236 229 225 218 211 209 204 202 199 193 200 210 208 210 217 225 240 272 280 292 296 290 293 299 302 304 309 314 316 309 310 295 278 277 282 292 302 310 333 354
237 234 238 230 225 223 219 215 212 202 198 200 207 218 222 220 218 224 234 242 267 286 293 295 298 306 310 309 311 318 322 321 320 313 309 285 279 284 299 291 320 51 50
Height
1460 1461 1462 1464 1465 1466 1467 1468 1469 1471 1472 1472 1473 1475 1475 1475 1476 1476 1477 1478 1478 1477 1477 1477 1477 1477 1476 1476 1475 1474 1473 1471 1469 1466 1465 1463 1461 1460 1457 1456 1454 1453 1451
1457 1458 1459 1460 1461 1462 1463 1464 1465 1466 1467 1468 1469 1470 1471 1471 1472 1473 1473 1473 1473 1473 1474 1473 1473 1473 1472 1472 1471 1470 1469 1467 1466 1463 1462 1460 1458 1457 1455 1453 1451 1449 1447
1454 1455 1456 1456 1457 1458 1459 1460 1461 1462 1463 1464 1465 1466 1467 1467 1468 1468 1469 1469 1469 1470 1470 1469 1469 1468 1468 1468 1467 1466 1465 1464 1462 1461 1459 1457 1456 1454 1452 1450 1448 1446 1443
1452 1452 1452 1453 1454 1455 1456 1457 1458 1458 1459 1460 1461 1462 1462 1463 1464 1465 1465 1465 1465 1465 1466 1465 1465 1465 1464 1464 1463 1462 1461 1460 1459 1457 1456 1454 1453 1451 1450 1447 1444 1442 1440
1450 1449 1450 1451 1452 1453 1453 1454 1455 1455 1455 1456 1457 1457 1458 1459 1460 1461 1461 1462 1462 1461 1461 1461 1461 1461 1460 1460 1459 1458 1458 1457 1455 1454 1453 1451 1450 1448 1447 1444 1442 1440 1437
1448 1448 1448 1449 1449 1450 1450 1451 1452 1452 1452 1453 1453 1454 1455 1456 1457 1457 1458 1458 1458 1458 1457 1457 1457 1456 1456 1456 1456 1455 1454 1453 1452 1451 1450 1448 1447 1446 1444 1442 1440 1438 1435
1446 1446 1446 1447 1447 1447 1448 1448 1449 1449 1449 1450 1450 1451 1452 1452 1453 1454 1454 1454 1454 1454 1454 1454 1454 1453 1453 1453 1452 1452 1451 1450 1450 1449 1447 1446 1445 1444 1442 1440 1438 1436 1434
1445 1444 1445 1445 1445 1445 1446 1446 1446 1446 1447 1447 1447 1448 1449 1449 1449 1450 1450 1451 1451 1451 1450 1450 1450 1450 1450 1450 1449 1449 1448 1447 1447 1446 1445 1444 1443 1442 1440 1439 1437 1435 1433
1443 1443 1443 1444 1443 1443 1444 1444 1444 1444 1444 1444 1445 1445 1446 1446 1447 1447 1447 1447 1447 1447 1447 1447 1447 1447 1447 1446 1446 1445 1444 1444 1444 1443 1443 1442 1441 1439 1438 1437 1435 1433 1430
1441 1441 1442 1442 1442 1442 1442 1442 1442 1442 1442 1442 1442 1443 1443 1443 1444 1444 1444 1444 1444 1444 1444 1444 1444 1444 1443 1443 1443 1442 1441 1441 1441 1441 1440 1439 1438 1437 1436 1435 1433 1431 1429
1440 1440 1440 1440 1440 1440 1440 1440 1440 1440 1440 1440 1440 1441 1441 1441 1441 1441 1442 1442 1442 1442 1441 1441 1441 1441 1440 1440 1440 1440 1439 1439 1439 1438 1437 1437 1436 1434 1433 1432 1431 1430 1428
1439 1439 1439 1439 1439 1438 1438 1438 1438 1438 1438 1438 1438 1438 1438 1439 1439 1439 1439 1439 1439 1439 1439 1439 1438 1438 1438 1438 1437 1437 1437 1437 1436 1436 1435 1434 1433 1432 1431 1430 1429 1428 1427
1437 1437 1437 1437 1437 1437 1437 1437 1437 1437 1437 1436 1436 1436 1436 1437 1437 1437 1437 1437 1437 1437 1436 1436 1436 1436 1436 1435 1435 1435 1435 1434 1434 1433 1432 1432 1431 1430 1429 1428 1426 1425 1424
1436 1436 1435 1435 1435 1435 1435 1435 1435 1435 1435 1434 1434 1434 1434 1434 1434 1434 1434 1434 1435 1435 1435 1434 1434 1434 1434 1434 1434 1433 1433 1433 1432 1432 1431 1430 1429 1428 1427 1426 1425 1423 1421
1434 1434 1434 1434 1433 1433 1433 1434 1434 1434 1434 1433 1433 1433 1432 1432 1432 1433 1433 1433 1433 1433 1433 1433 1433 1432 1432 1432 1432 1432 1431 1431 1431 1430 1429 1428 1427 1427 1426 1425 1423 1422 1420
1432 1432 1432 1431 1431 1431 1431 1431 1432 1432 1432 1432 1431 1431 1431 1431 1431 1431 1431 1431 1432 1432 1432 1431 1431 1431 1431 1430 1430 1430 1430 1430 1430 1429 1428 1427 1426 1425 1425 1424 1422 1421 1419
1430 1430 1430 1429 1429 1429 1429 1429 1429 1430 1430 1430 1430 1429 1429 1429 1429 1429 1429 1430 1430 1430 1430 1430 1430 1430 1429 1429 1429 1429 1429 1429 1429 1428 1427 1426 1425 1424 1424 1423 1421 1420 1418
1429 1429 1428 1428 1428 1428 1428 1428 1428 1428 1428 1427 1428 1428 1428 1428 1428 1428 1428 1428 1429 1429 1429 1429 1429 1429 1428 1428 1428 1428 1428 1428 1428 1427 1426 1425 1424 1424 1423 1422 1421 1419 1418
1428 1427 1427 1426 1426 1426 1426 1426 1426 1426 1426 1426 1426 1427 1427 1426 1426 1426 1427 1427 1427 1427 1428 1428 1428 1428 1427 1427 1427 1427 1427 1427 1426 1426 1425 1424 1423 1423 1422 1421 1420 1418 1417
1426 1425 1425 1425 1424 1424 1424 1424 1424 1424 1425 1425 1425 1425 1425 1425 1425 1425 1425 1426 1426 1426 1427 1427 1427 1427 1427 1426 1426 1426 1426 1426 1425 1425 1424 1423 1423 1422 1421 1420 1419 1418 1416
1424 1423 1423 1423 1422 1422 1422 1422 1422 1423 1423 1423 1423 1423 1424 1424 1424 1424 1425 1425 1425 1425 1426 1426 1426 1426 1426 1426 1425 1425 1425 1424 1424 1423 1422 1422 1421 1421 1420 1419 1418 1417 1415
1422 1422 1421 1421 1421 1421 1421 1421 1421 1421 1421 1421 1422 1422 1423 1423 1423 1423 1423 1424 1424 1425 1425 1425 1425 1425 1425 1425 1425 1424 1424 1423 1422 1422 1421 1421 1420 1419 1419 1418 1417 1416 1415
1421 1421 1420 1420 1420 1420 1420 1419 1419 1419 1420 1420 1420 1421 1421 1422 1422 1422 1422 1423 1423 1423 1424 1424 1424 1424 1423 1423 1423 1423 1422 1422 1421 1421 1420 1420 1419 1418 1417 1417 1416 1415 1414
1420 1419 1419 1419 1418 1418 1418 1418 1418 1418 1418 1419 1419 1420 1420 1420 1421 1421 1421 1422 1422 1422 1422 1422 1422 1422 1422 1422 1421 1421 1421 1421 1420 1420 1419 1418 1418 1417 1417 1416 1415 1415 1414
1418 1418 1418 1417 1417 1417 1417 1417 1417 1417 1417 1418 1418 1418 1419 1419 1419 1420 1420 1420 1421 1421 1421 1421 1421 1420 1420 1420 1420 1419 1419 1419 1419 1418 1418 1417 1417 1416 1416 1415 1415 1414 1414
1417 1416 1416 1416 1416 1416 1416 1415 1415 1416 1416 1416 1417 1417 1417 1418 1418 1418 1419 1419 1419 1419 1420 1419 1419 1419 1418 1418 1418 1418 1418 1418 1417 1417 1417 1416 1416 1416 1415 1415 1415 1414 1414